Location: Austin
(30.3000°N, 97.7500°W)
Time: 02:47:57
(UTC-05:00)

Aurora 2 Rocket - Pass Details

Date: 15 May 2024
Orbit: 387 x 1634 km, 25.0° (Epoch: 29 May)

Event Time Altitude Azimuth Distance (km) Brightness Sun altitude
Rises 21:51:04 0° 261° (W) 2,490 6.4 -18.2°
Reaches altitude 10° 21:53:06 10° 252° (WSW) 1,725 5.3 -18.6°
Maximum altitude 21:56:46 37° 184° (S) 945 3.2 -19.2°
Enters shadow 21:57:18 36° 167° (SSE) 995 3.2 -19.3°
